Weather History for Milwaukee, WI

Change the Weather History Date:

Sunday, January 6, 2013

  Actual Average Record
Temperature  
Mean Temperature 28 °F 22 °F  
Max Temperature 35 °F 29 °F 52 °F (1933)
Min Temperature 20 °F 16 °F -18 °F (1912)
Degree Days  
Heating Degree Days 37 43  
Month to date heating degree days 261 253  
Since 1 July heating degree days 2590 2813  
Cooling Degree Days 0 0  
Month to date cooling degree days 0 0  
Year to date cooling degree days 0 0  
Moisture  
Dew Point 22 °F    
Average Humidity 75    
Maximum Humidity 89    
Minimum Humidity 61    
Precipitation  
Precipitation T in 0.06 in 1.82 in (1918)
Month to date precipitation 0.05 0.36  
Year to date precipitation 0.05 0.36  
Snow  
Snow T in 0.40 in 15.70 in (1918)
Month to date snowfall 0.1 2.7  
Since 1 July snowfall 7.0 16.0  
Snow Depth 1.00 in    
Sea Level Pressure  
Sea Level Pressure 30.09 in    
Wind  
Wind Speed 11 mph (West)    
Max Wind Speed 21 mph    
Max Gust Speed 28 mph    
Visibility 8 miles    
Events Snow    
T = Trace of Precipitation, MM = Missing Value Source: NWS Daily Summary

Daily Weather History Graph

Daily Weather History Graph

Search for Another Location

Airport:

Trip Planner

Search our weather history database for the weather conditions in past years. The results will help you decide how hot, cold, wet, or windy it might be!

Date:

Astronomy

Jan. 06, 2013 Rise Set
Actual Time 7:22 AM CST 4:32 PM CST
Civil Twilight 6:50 AM CST 5:04 PM CST
Nautical Twilight 6:15 AM CST 5:40 PM CST
Astronomical Twilight 5:40 AM CST 6:14 PM CST
Moon 1:33 AM CST (1/6) 12:02 PM CST (1/6)
Length of Visible Light 10h 14m
Length of Day
9h 10m
Waning Crescent, 33% of the Moon is Illuminated
Jan 6
Waning Crescent
Jan 11
New
Jan 18
First Quarter
Jan 26
Full
Feb 3
Last Quarter

Hourly Weather History & Observations

Time (CST) Temp. Windchill Dew Point Humidity Pressure Visibility Wind Dir Wind Speed Gust Speed Precip Events Conditions
12:52 AM 35.1 °F 27.9 °F 32.0 °F 89% 29.89 in 8.0 mi SW 9.2 mph - N/A   Overcast
1:52 AM 35.1 °F 27.4 °F 30.9 °F 85% 29.90 in 8.0 mi WSW 10.4 mph - N/A   Overcast
2:52 AM 35.1 °F 27.9 °F 30.9 °F 85% 29.89 in 8.0 mi WSW 9.2 mph - N/A   Overcast
3:52 AM 34.0 °F 25.0 °F 28.9 °F 82% 29.88 in 7.0 mi West 12.7 mph - N/A   Overcast
4:29 AM 32.0 °F 24.8 °F 28.4 °F 87% 29.87 in 2.0 mi West 8.1 mph 18.4 mph 0.00 in Snow Light Snow
4:42 AM 32.0 °F 24.2 °F 26.6 °F 80% 29.87 in 4.0 mi West 9.2 mph 19.6 mph 0.00 in   Haze
4:52 AM 32.0 °F 23.0 °F 27.0 °F 82% 29.90 in 7.0 mi West 11.5 mph 18.4 mph 0.00 in   Mostly Cloudy
5:52 AM 30.0 °F 18.3 °F 23.0 °F 75% 29.93 in 8.0 mi NW 17.3 mph 21.9 mph N/A   Overcast
6:52 AM 27.0 °F 15.2 °F 19.9 °F 75% 29.96 in 7.0 mi WNW 15.0 mph 21.9 mph N/A   Mostly Cloudy
7:14 AM 26.6 °F 18.2 °F 19.4 °F 74% 29.94 in 7.0 mi WNW 8.1 mph 19.6 mph N/A   Mostly Cloudy
7:52 AM 25.0 °F 13.6 °F 19.0 °F 78% 29.99 in 6.0 mi WNW 12.7 mph - N/A   Haze
8:52 AM 26.1 °F 14.5 °F 19.9 °F 78% 30.02 in 6.0 mi WNW 13.8 mph 20.7 mph N/A   Haze
9:52 AM 27.0 °F 13.9 °F 21.0 °F 78% 30.06 in 7.0 mi WNW 18.4 mph 25.3 mph N/A   Overcast
10:52 AM 28.9 °F 17.3 °F 21.9 °F 75% 30.07 in 9.0 mi NW 16.1 mph 24.2 mph N/A   Mostly Cloudy
11:07 AM 28.4 °F 17.0 °F 21.2 °F 74% 30.05 in 10.0 mi NW 15.0 mph 23.0 mph N/A   Overcast
11:52 AM 28.9 °F 18.2 °F 21.9 °F 75% 30.09 in 10.0 mi WNW 13.8 mph 24.2 mph N/A   Overcast
12:52 PM 30.9 °F 19.8 °F 21.9 °F 69% 30.10 in 10.0 mi WNW 16.1 mph - N/A   Mostly Cloudy
1:24 PM 30.2 °F 20.2 °F 23.0 °F 75% 30.09 in 10.0 mi NW 12.7 mph 23.0 mph N/A   Mostly Cloudy
1:52 PM 32.0 °F 21.6 °F 21.9 °F 66% 30.12 in 10.0 mi NW 15.0 mph - N/A   Scattered Clouds
2:52 PM 33.1 °F 24.4 °F 21.9 °F 64% 30.17 in 10.0 mi WNW 11.5 mph - N/A   Partly Cloudy
3:52 PM 30.9 °F 22.2 °F 21.9 °F 69% 30.20 in 10.0 mi WNW 10.4 mph - N/A   Partly Cloudy
4:52 PM 30.0 °F 24.1 °F 21.0 °F 69% 30.23 in 10.0 mi WNW 5.8 mph - N/A   Scattered Clouds
5:52 PM 28.0 °F 21.7 °F 21.0 °F 75% 30.27 in 10.0 mi WNW 5.8 mph - N/A   Clear
6:52 PM 27.0 °F 21.6 °F 19.9 °F 75% 30.29 in 10.0 mi West 4.6 mph - N/A   Clear
7:52 PM 26.1 °F 21.9 °F 19.9 °F 78% 30.30 in 9.0 mi West 3.5 mph - N/A   Clear
8:52 PM 24.1 °F 18.2 °F 19.0 °F 81% 30.30 in 8.0 mi SSW 4.6 mph - N/A   Clear
9:52 PM 23.0 °F 14.7 °F 19.0 °F 85% 30.31 in 7.0 mi WSW 6.9 mph - N/A   Clear
10:52 PM 21.0 °F 16.2 °F 17.1 °F 85% 30.32 in 6.0 mi SW 3.5 mph - N/A   Clear
11:52 PM 19.9 °F 12.1 °F 16.0 °F 85% 30.32 in 6.0 mi SW 5.8 mph - N/A   Clear